This demonstration page uses our WeatherBlox Daily Observations layout. Learn more.

Left ArrowRight Arrow

Hourly Observations for March 25, 2022

Temp ( °F °C ) Dew Point ( °F °C ) Humidity (%) Winds ( mph kmh ) Pressure ( in mb ) Visibility ( mi km ) Precip ( " mm )
12:15 am 00:15 Clear 36 2 23 -5 60 60 W 7 11 30.07 1018 10 16 0.00 0.00
12:35 am 00:35 Clear 37 3 23 -5 56 56 W 6 9 30.06 1018 10 16 0.00 0.00
12:55 am 00:55 Clear 36 2 21 -6 56 56 W 7 11 30.07 1018 10 16 0.00 0.00
1:15 am 01:15 Clear 36 2 23 -5 60 60 W 6 9 30.08 1019 10 16 0.00 0.00
1:35 am 01:35 Clear 37 3 23 -5 56 56 W 7 11 30.07 1018 10 16 0.00 0.00
1:55 am 01:55 Clear 37 3 23 -5 56 56 W 7 11 30.08 1019 10 16 0.00 0.00
2:15 am 02:15 Clear 37 3 23 -5 56 56 W 8 13 30.09 1019 10 16 0.00 0.00
2:35 am 02:35 Clear 37 3 23 -5 56 56 NW 9 15 30.10 1019 10 16 0.00 0.00
2:55 am 02:55 Clear 37 3 23 -5 56 56 NNW 14 22 30.12 1020 10 16 0.00 0.00
3:15 am 03:15 Clear 41 5 23 -5 49 49 N 8 13 30.12 1020 10 16 0.00 0.00
3:35 am 03:35 Clear 41 5 23 -5 49 49 NNE 12 19 30.12 1020 10 16 0.00 0.00
3:55 am 03:55 Mostly Cloudy 45 7 27 -3 49 49 N 13 20 30.13 1020 10 16 0.00 0.00
4:15 am 04:15 Cloudy 48 9 30 -1 50 50 NNE 18 30 30.11 1020 10 16 0.00 0.00
4:35 am 04:35 Cloudy 48 9 30 -1 50 50 NNE 16 26 30.12 1020 10 16 0.00 0.00
4:55 am 04:55 Mostly Cloudy 48 9 30 -1 50 50 NNE 15 24 30.13 1020 10 16 0.00 0.00
5:15 am 05:15 Mostly Cloudy 48 9 30 -1 50 50 NNE 22 35 30.13 1020 10 16 0.00 0.00
5:35 am 05:35 Cloudy 48 9 32 0 54 54 NNE 16 26 30.16 1021 10 16 0.00 0.00
5:55 am 05:55 Cloudy with Light Rain 48 9 32 0 54 54 NNE 17 28 30.16 1021 10 16 0.00 0.00
6:15 am 06:15 Mostly Cloudy 48 9 32 0 54 54 NNE 18 30 30.17 1022 10 16 0.00 0.00
6:35 am 06:35 Mostly Cloudy 48 9 32 0 54 54 NNE 14 22 30.18 1022 10 16 0.00 0.00
6:55 am 06:55 Mostly Cloudy 45 7 30 -1 57 57 NNE 18 30 30.22 1023 10 16 0.00 0.00
7:15 am 07:15 Mostly Cloudy 45 7 32 0 61 61 NNE 18 30 30.23 1024 10 16 0.00 0.00
7:35 am 07:35 Mostly Cloudy 45 7 32 0 61 61 NNE 16 26 30.24 1024 10 16 0.00 0.00
7:55 am 07:55 Partly Cloudy 45 7 30 -1 57 57 NNE 16 26 30.24 1024 10 16 0.00 0.00
8:15 am 08:15 Mostly Cloudy 43 6 27 -3 53 53 N 14 22 30.27 1025 10 16 0.00 0.00
8:35 am 08:35 Cloudy 43 6 27 -3 53 53 N 15 24 30.28 1025 10 16 0.00 0.00
8:55 am 08:55 Cloudy 45 7 23 -5 42 42 NNE 14 22 30.27 1025 10 16 0.00 0.00
9:15 am 09:15 Cloudy 45 7 23 -5 42 42 NNE 9 15 30.29 1026 10 16 0.00 0.00
9:35 am 09:35 Cloudy 45 7 19 -7 37 37 NNE 15 24 30.30 1026 10 16 0.00 0.00
9:55 am 09:55 Cloudy 45 7 16 -9 31 31 NNE 17 28 30.31 1026 10 16 0.00 0.00
10:15 am 10:15 Cloudy 45 7 10 -12 25 25 NNE 20 31 30.32 1027 10 16 0.00 0.00
10:35 am 10:35 Mostly Cloudy 45 7 12 -11 27 27 NNE 21 33 30.33 1027 10 16 0.00 0.00
10:55 am 10:55 Mostly Cloudy 45 7 12 -11 27 27 N 16 26 30.34 1027 10 16 0.00 0.00
11:15 am 11:15 Cloudy 45 7 10 -12 25 25 NNE 15 24 30.34 1027 10 16 0.00 0.00
11:35 am 11:35 Cloudy 48 9 12 -11 23 23 N 16 26 30.32 1027 10 16 0.00 0.00
11:55 am 11:55 Cloudy 48 9 14 -10 25 25 N 8 13 30.32 1027 10 16 0.00 0.00
12:15 pm 12:15 Cloudy 48 9 14 -10 25 25 N 20 31 30.32 1027 10 16 0.00 0.00
12:35 pm 12:35 Mostly Cloudy 48 9 12 -11 23 23 N 14 22 30.31 1026 10 16 0.00 0.00
12:55 pm 12:55 Mostly Cloudy 52 11 14 -10 22 22 NNW 7 11 30.28 1025 10 16 0.00 0.00
1:15 pm 13:15 Mostly Cloudy 52 11 14 -10 22 22 N 14 22 30.28 1025 10 16 0.00 0.00
1:35 pm 13:35 Partly Cloudy 52 11 14 -10 22 22 N 9 15 30.27 1025 10 16 0.00 0.00
1:55 pm 13:55 Sunny 54 12 16 -9 22 22 N 13 20 30.25 1024 10 16 0.00 0.00
2:15 pm 14:15 Sunny 54 12 14 -10 21 21 NNW 14 22 30.24 1024 10 16 0.00 0.00
2:35 pm 14:35 Partly Cloudy 54 12 14 -10 21 21 NNW 7 11 30.24 1024 10 16 0.00 0.00
2:55 pm 14:55 Partly Cloudy 55 13 14 -10 19 19 N 8 13 30.22 1024 10 16 0.00 0.00
3:15 pm 15:15 Partly Cloudy 55 13 14 -10 19 19 NNW 5 7 30.20 1023 10 16 0.00 0.00
3:35 pm 15:35 Sunny 55 13 14 -10 19 19 N 12 19 30.19 1022 10 16 0.00 0.00
3:55 pm 15:55 Sunny 55 13 14 -10 19 19 NNW 9 15 30.18 1022 10 16 0.00 0.00
4:15 pm 16:15 Sunny 59 15 18 -8 20 20 NW 10 17 30.17 1022 10 16 0.00 0.00
4:35 pm 16:35 Sunny 57 14 18 -8 21 21 N 8 13 30.16 1021 10 16 0.00 0.00
4:55 pm 16:55 Sunny 59 15 18 -8 20 20 NW 13 20 30.15 1021 10 16 0.00 0.00
5:15 pm 17:15 Sunny 59 15 18 -8 20 20 NW 13 20 30.15 1021 10 16 0.00 0.00
5:35 pm 17:35 Sunny 59 15 19 -7 21 21 WNW 10 17 30.14 1021 10 16 0.00 0.00
5:55 pm 17:55 Sunny 59 15 19 -7 21 21 NW 16 26 30.13 1020 10 16 0.00 0.00
6:15 pm 18:15 Sunny 59 15 19 -7 21 21 NW 13 20 30.13 1020 10 16 0.00 0.00
6:35 pm 18:35 Sunny 59 15 21 -6 23 23 NNW 15 24 30.13 1020 10 16 0.00 0.00
6:55 pm 18:55 Sunny 55 13 21 -6 26 26 NW 12 19 30.13 1020 10 16 0.00 0.00
7:15 pm 19:15 Sunny 55 13 21 -6 26 26 NW 6 9 30.13 1020 10 16 0.00 0.00
7:35 pm 19:35 Sunny 52 11 21 -6 30 30 NNW 6 9 30.15 1021 10 16 0.00 0.00
7:55 pm 19:55 Sunny 48 9 19 -7 32 32 NW 6 9 30.17 1022 10 16 0.00 0.00
8:15 pm 20:15 Clear 48 9 21 -6 34 34 NW 5 7 30.17 1022 10 16 0.00 0.00
8:35 pm 20:35 Clear 45 7 19 -7 37 37 NW 6 9 30.19 1022 10 16 0.00 0.00
8:55 pm 20:55 Clear 45 7 21 -6 39 39 WNW 5 7 30.19 1022 10 16 0.00 0.00
9:15 pm 21:15 Clear 43 6 19 -7 39 39 NW 5 7 30.20 1023 10 16 0.00 0.00
9:35 pm 21:35 Clear 37 3 19 -7 48 48 WNW 5 7 30.23 1024 10 16 0.00 0.00
9:55 pm 21:55 Clear 39 4 19 -7 45 45 WSW 7 11 30.22 1023 10 16 0.00 0.00
10:15 pm 22:15 Clear 37 3 23 -5 56 56 W 6 9 30.24 1024 10 16 0.00 0.00
10:35 pm 22:35 Clear 37 3 23 -5 56 56 WSW 7 11 30.23 1024 10 16 0.00 0.00
10:55 pm 22:55 Clear 37 3 23 -5 56 56 W 7 11 30.23 1024 10 16 0.00 0.00
11:15 pm 23:15 Clear 37 3 23 -5 56 56 W 5 7 30.22 1023 10 16 0.00 0.00
11:35 pm 23:35 Clear 36 2 21 -6 56 56 Calm 30.23 1024 10 16 0.00 0.00
11:55 pm 23:55 Clear 34 1 23 -5 65 65 WSW 6 9 30.24 1024 10 16 0.00 0.00

Powered by AerisWeather